When you browse on this site, cookies collect data to enhance your experience and personalize the content and advertising you see.
Visit our Privacy Policy to learn more. By continuing to use the site, you agree to this use of cookies and data.
  • In Sweden
  • List of Countries
  • For 7 days
  • Water Temperature
  • Weather Map
  • Weather Widgets
  • user-avatar
    Login

    Hourly Weather Ostrowiec

    Today, 24 August, Saturday

    Time Temperature Precipitation Wind Pressure Humidity
    00:00 +17°C° 0 mm 2 mps 761 mmHg 74%
    01:00 +17°C° 0 mm 2 mps 761 mmHg 76%
    02:00 +17°C° 0 mm 2 mps 761 mmHg 78%
    03:00 +16°C° 0 mm 2 mps 761 mmHg 80%
    04:00 +16°C° 0 mm 2 mps 762 mmHg 81%
    05:00 +17°C° 0 mm 2 mps 761 mmHg 77%
    06:00 +18°C° 0 mm 2 mps 761 mmHg 72%
    07:00 +19°C° 0 mm 2 mps 761 mmHg 68%
    08:00 +21°C° 0 mm 2 mps 761 mmHg 62%
    09:00 +24°C° 0 mm 3 mps 762 mmHg 56%
    10:00 +25°C° 0 mm 3 mps 762 mmHg 50%
    11:00 +26°C° 0 mm 3 mps 761 mmHg 47%
    12:00 +27°C° 0 mm 3 mps 761 mmHg 44%
    13:00 +28°C° 0 mm 4 mps 761 mmHg 41%
    14:00 +27°C° 0 mm 4 mps 760 mmHg 41%
    15:00 +27°C° 0 mm 4 mps 760 mmHg 41%
    16:00 +27°C° 0 mm 4 mps 760 mmHg 42%
    17:00 +25°C° 0 mm 3 mps 760 mmHg 47%
    18:00 +22°C° 0 mm 3 mps 760 mmHg 52%
    19:00 +21°C° 0 mm 3 mps 760 mmHg 57%
    20:00 +20°C° 0 mm 3 mps 760 mmHg 58%
    21:00 +19°C° 0 mm 3 mps 760 mmHg 60%
    22:00 +18°C° 0 mm 3 mps 760 mmHg 61%
    23:00 +18°C° 0 mm 3 mps 760 mmHg 64%

    Tomorrow, 25 August, Sunday

    Time Temperature Precipitation Wind Pressure Humidity
    00:00 +17°C° 0 mm 3 mps 760 mmHg 67%
    01:00 +17°C° 0 mm 3 mps 760 mmHg 71%
    02:00 +16°C° 0 mm 3 mps 760 mmHg 73%
    03:00 +16°C° 0 mm 3 mps 760 mmHg 76%
    04:00 +16°C° 0 mm 3 mps 760 mmHg 78%
    05:00 +16°C° 0 mm 3 mps 760 mmHg 75%
    06:00 +17°C° 0 mm 3 mps 760 mmHg 71%
    07:00 +18°C° 0 mm 4 mps 760 mmHg 68%
    08:00 +20°C° 0 mm 4 mps 760 mmHg 61%
    09:00 +22°C° 0 mm 5 mps 760 mmHg 55%
    10:00 +25°C° 0 mm 5 mps 760 mmHg 48%
    11:00 +26°C° 0 mm 5 mps 760 mmHg 47%
    12:00 +27°C° 0 mm 5 mps 760 mmHg 45%
    13:00 +28°C° 0 mm 5 mps 759 mmHg 43%
    14:00 +28°C° 0 mm 5 mps 759 mmHg 44%
    15:00 +28°C° 0 mm 5 mps 759 mmHg 44%
    16:00 +28°C° 0 mm 5 mps 758 mmHg 45%
    17:00 +26°C° 0 mm 4 mps 758 mmHg 50%
    18:00 +23°C° 0 mm 4 mps 758 mmHg 56%
    19:00 +21°C° 0 mm 4 mps 759 mmHg 61%
    20:00 +21°C° 0 mm 3 mps 759 mmHg 64%
    21:00 +20°C° 0 mm 3 mps 759 mmHg 67%
    22:00 +20°C° 0 mm 3 mps 759 mmHg 69%
    23:00 +19°C° 0 mm 3 mps 759 mmHg 71%

    Day after tomorrow, 26 August, Monday

    Time Temperature Precipitation Wind Pressure Humidity
    00:00 +19°C° 0 mm 3 mps 759 mmHg 73%
    01:00 +19°C° 0 mm 3 mps 759 mmHg 75%
    02:00 +18°C° 0 mm 3 mps 759 mmHg 76%
    03:00 +18°C° 0 mm 3 mps 758 mmHg 76%
    04:00 +18°C° 0 mm 3 mps 758 mmHg 76%
    05:00 +19°C° 0 mm 4 mps 758 mmHg 74%
    06:00 +19°C° 0 mm 4 mps 758 mmHg 72%
    07:00 +20°C° 0 mm 4 mps 758 mmHg 69%
    08:00 +22°C° 0 mm 4 mps 758 mmHg 64%
    09:00 +23°C° 0 mm 4 mps 758 mmHg 59%
    10:00 +26°C° 0 mm 4 mps 758 mmHg 54%
    11:00 +27°C° 0 mm 4 mps 758 mmHg 52%
    12:00 +28°C° 0 mm 5 mps 758 mmHg 49%
    13:00 +29°C° 0 mm 5 mps 757 mmHg 46%
    14:00 +29°C° 0 mm 5 mps 757 mmHg 47%
    15:00 +30°C° 0 mm 4 mps 757 mmHg 47%
    16:00 +30°C° 0 mm 4 mps 757 mmHg 47%
    17:00 +28°C° 0 mm 4 mps 757 mmHg 53%
    18:00 +26°C° 0 mm 4 mps 757 mmHg 59%
    19:00 +25°C° 0 mm 3 mps 757 mmHg 65%
    20:00 +24°C° 0 mm 3 mps 757 mmHg 68%
    21:00 +22°C° 0 mm 3 mps 757 mmHg 70%
    22:00 +22°C° 0 mm 3 mps 757 mmHg 73%
    23:00 +21°C° 0 mm 3 mps 757 mmHg 75%

    27 August, Tuesday

    Time Temperature Precipitation Wind Pressure Humidity
    00:00 +21°C° 0 mm 3 mps 757 mmHg 76%
    01:00 +20°C° 0 mm 3 mps 757 mmHg 78%
    02:00 +20°C° 0 mm 3 mps 757 mmHg 78%
    03:00 +19°C° 0 mm 3 mps 757 mmHg 79%
    04:00 +19°C° 0 mm 3 mps 757 mmHg 79%
    05:00 +20°C° 0 mm 3 mps 757 mmHg 75%
    06:00 +21°C° 0 mm 4 mps 757 mmHg 72%
    07:00 +21°C° 0 mm 4 mps 757 mmHg 69%
    08:00 +23°C° 0 mm 4 mps 757 mmHg 62%
    09:00 +26°C° 0 mm 5 mps 757 mmHg 56%
    10:00 +28°C° 0 mm 5 mps 758 mmHg 50%
    11:00 +29°C° 0 mm 5 mps 757 mmHg 47%
    12:00 +30°C° 0 mm 5 mps 757 mmHg 44%
    13:00 +32°C° 0 mm 5 mps 757 mmHg 41%
    14:00 +32°C° 0 mm 5 mps 757 mmHg 42%
    15:00 +32°C° 0 mm 5 mps 757 mmHg 43%
    16:00 +32°C° 0 mm 5 mps 757 mmHg 44%
    17:00 +29°C° 0 mm 4 mps 757 mmHg 50%
    18:00 +27°C° 0 mm 4 mps 757 mmHg 56%
    19:00 +25°C° 0 mm 4 mps 757 mmHg 62%
    20:00 +25°C° 0 mm 4 mps 757 mmHg 65%
    21:00 +23°C° 0 mm 4 mps 757 mmHg 67%
    22:00 +22°C° 0 mm 4 mps 757 mmHg 69%
    23:00 +22°C° 0 mm 4 mps 757 mmHg 71%

    28 August, Wednesday

    Time Temperature Precipitation Wind Pressure Humidity
    00:00 +21°C° 0 mm 4 mps 757 mmHg 73%
    01:00 +20°C° 0 mm 4 mps 757 mmHg 75%
    02:00 +20°C° 0 mm 4 mps 757 mmHg 76%
    03:00 +19°C° 0 mm 4 mps 757 mmHg 77%
    04:00 +19°C° 0 mm 4 mps 757 mmHg 79%
    05:00 +20°C° 0 mm 4 mps 757 mmHg 76%
    06:00 +21°C° 0 mm 4 mps 757 mmHg 73%
    07:00 +21°C° 0 mm 5 mps 757 mmHg 69%
    08:00 +23°C° 0 mm 5 mps 756 mmHg 63%
    09:00 +26°C° 0 mm 5 mps 756 mmHg 57%
    10:00 +28°C° 0 mm 5 mps 756 mmHg 50%
    11:00 +29°C° 0 mm 5 mps 756 mmHg 47%
    12:00 +32°C° 0 mm 5 mps 756 mmHg 43%
    13:00 +33°C° 0 mm 5 mps 755 mmHg 40%
    14:00 +33°C° 0 mm 5 mps 755 mmHg 40%
    15:00 +33°C° 0 mm 5 mps 755 mmHg 40%
    16:00 +33°C° 0 mm 5 mps 755 mmHg 41%
    17:00 +30°C° 0 mm 5 mps 754 mmHg 46%
    18:00 +28°C° 0 mm 5 mps 754 mmHg 51%
    19:00 +26°C° 0 mm 5 mps 754 mmHg 56%
    20:00 +26°C° 0.1 mm 5 mps 754 mmHg 59%
    21:00 +25°C° 0.1 mm 5 mps 755 mmHg 62%
    22:00 +23°C° 0.1 mm 5 mps 755 mmHg 64%
    23:00 +23°C° 0.2 mm 4 mps 755 mmHg 67%

    29 August, Thursday

    Time Temperature Precipitation Wind Pressure Humidity
    00:00 +22°C° 0.2 mm 4 mps 755 mmHg 69%
    01:00 +21°C° 0.2 mm 4 mps 755 mmHg 72%
    02:00 +21°C° 0.2 mm 4 mps 754 mmHg 73%
    03:00 +20°C° 0.2 mm 4 mps 754 mmHg 74%
    04:00 +20°C° 0.2 mm 4 mps 754 mmHg 75%
    05:00 +20°C° 0.1 mm 4 mps 754 mmHg 73%
    06:00 +21°C° 0.1 mm 4 mps 754 mmHg 71%
    07:00 +21°C° 0.1 mm 4 mps 754 mmHg 68%
    08:00 +23°C° 0.2 mm 4 mps 754 mmHg 64%
    09:00 +26°C° 0.2 mm 4 mps 754 mmHg 59%
    10:00 +28°C° 0.2 mm 4 mps 754 mmHg 54%
    11:00 +29°C° 0.2 mm 4 mps 754 mmHg 51%
    12:00 +30°C° 0.2 mm 4 mps 754 mmHg 48%
    13:00 +32°C° 0.2 mm 4 mps 754 mmHg 46%
    14:00 +32°C° 0 mm 4 mps 753 mmHg 46%
    15:00 +32°C° 0 mm 4 mps 753 mmHg 46%
    16:00 +32°C° 0 mm 4 mps 753 mmHg 47%
    17:00 +29°C° 0 mm 4 mps 753 mmHg 52%
    18:00 +27°C° 0 mm 4 mps 753 mmHg 57%
    19:00 +25°C° 0 mm 4 mps 753 mmHg 62%
    20:00 +23°C° 0.4 mm 4 mps 754 mmHg 66%
    21:00 +23°C° 0.4 mm 4 mps 754 mmHg 70%
    22:00 +22°C° 0.4 mm 4 mps 754 mmHg 74%
    23:00 +21°C° 0.5 mm 4 mps 754 mmHg 76%
    Show more